Faith, SD

5:23 PM MDT on July 25, 2017 (GMT -0600)
Faith

Weather History for KD07 - March, 2013

Change the Weather History Date:

Thursday, March 14, 2013

  Actual Average Record
Temperature  
Mean Temperature 54 °F 32 °F  
Max Temperature 71 °F 42 °F 74 °F (2015)
Min Temperature 36 °F 22 °F 12 °F (2017)
Degree Days  
Heating Degree Days 11 33  
Month to date heating degree days 452 497  
Since 1 July heating degree days 5795 6185  
Cooling Degree Days 0 0  
Month to date cooling degree days 0 0  
Year to date cooling degree days 0 0  
Growing Degree Days 4 (Base 50)    
Moisture  
Dew Point 30 °F    
Average Humidity 48    
Maximum Humidity 76    
Minimum Humidity 20    
Precipitation  
Precipitation 0.00 in 0.03 in 0.06 in (2007)
Month to date precipitation 0.08 0.34  
Year to date precipitation 0.65 0.96  
Sea Level Pressure  
Sea Level Pressure 30.05 in    
Wind  
Wind Speed 11 mph (WNW)    
Max Wind Speed 20 mph    
Max Gust Speed 28 mph    
T = Trace of Precipitation, MM = Missing Value Source: NWS Daily Summary

Daily Weather History Graph

Daily Weather History Graph

Search for Another Location

Airport or City:

Trip Planner

Search our weather history database for the weather conditions in past years. The results will help you decide how hot, cold, wet, or windy it might be!

Date:

Astronomy

Mar. 14, 2013 Rise Set
Actual Time 7:01 AM MDT 6:53 PM MDT
Civil Twilight 6:32 AM MDT 7:22 PM MDT
Nautical Twilight 5:58 AM MDT 7:56 PM MDT
Astronomical Twilight 5:23 AM MDT 8:31 PM MDT
Moon 8:07 AM MDT (3/14) 10:22 PM MDT (3/14)
Length of Visible Light 12h 49m
Length of Day
11h 51m
Waxing Crescent, 9% of the Moon is Illuminated
Mar 14
Waxing Crescent
Mar 19
First Quarter
Mar 27
Full
Apr 2
Last Quarter
Apr 10
New

Hourly Weather History & Observations

Time (MDT) Temp. Windchill Dew Point Humidity Pressure Visibility Wind Dir Wind Speed Gust Speed Precip Events Conditions
12:56 AM 44.1 °F 39.0 °F 28.0 °F 53% 30.07 in - WNW 9.2 mph - N/A   Unknown
1:56 AM 46.0 °F 40.2 °F 28.9 °F 51% 30.06 in - WNW 12.7 mph - N/A   Unknown
2:56 AM 42.1 °F 35.7 °F 30.0 °F 62% 30.08 in - WNW 11.5 mph - N/A   Unknown
3:56 AM 39.9 °F 32.5 °F 30.0 °F 68% 30.08 in - WNW 12.7 mph - N/A   Unknown
4:56 AM 37.0 °F 31.0 °F 30.0 °F 76% 30.09 in - West 8.1 mph - N/A   Unknown
5:56 AM 39.0 °F 31.8 °F 30.0 °F 70% 30.12 in - WNW 11.5 mph - N/A   Unknown
6:56 AM 39.0 °F 32.3 °F 30.0 °F 70% 30.14 in - WNW 10.4 mph - N/A   Unknown
7:56 AM 39.9 °F 33.9 °F 30.9 °F 70% 30.15 in - WNW 9.2 mph - N/A   Unknown
8:56 AM 46.9 °F - 32.0 °F 56% 30.15 in - WNW 9.2 mph - N/A   Unknown
9:56 AM 55.9 °F - 33.1 °F 42% 30.12 in - WNW 9.2 mph - N/A   Unknown
10:56 AM 62.1 °F - 30.9 °F 31% 30.11 in - West 10.4 mph - N/A   Unknown
11:56 AM 66.0 °F - 27.0 °F 23% 30.09 in - WNW 10.4 mph - N/A   Unknown
12:56 PM 68.0 °F - 28.9 °F 23% 30.07 in - West 15.0 mph - N/A   Unknown
1:56 PM 68.0 °F - 28.0 °F 22% 30.04 in - West 15.0 mph - N/A   Unknown
2:56 PM 70.0 °F - 28.0 °F 21% 30.02 in - West 13.8 mph - N/A   Unknown
3:56 PM 71.1 °F - 28.9 °F 21% 30.00 in - West 11.5 mph 17.3 mph N/A   Unknown
4:56 PM 70.0 °F - 28.0 °F 21% 29.99 in - West 12.7 mph 23.0 mph N/A   Unknown
5:56 PM 68.0 °F - 28.0 °F 22% 29.99 in - NW 9.2 mph - N/A   Unknown
6:56 PM 61.0 °F - 28.0 °F 29% 29.99 in - NNW 8.1 mph - N/A   Unknown
7:56 PM 57.9 °F - 28.0 °F 32% 29.98 in - NNW 6.9 mph - N/A   Unknown
8:56 PM 55.9 °F - 28.9 °F 36% 29.96 in - North 8.1 mph - N/A   Unknown
9:56 PM 55.0 °F - 30.0 °F 38% 29.94 in - North 8.1 mph - N/A   Unknown
10:56 PM 51.1 °F - 30.9 °F 46% 29.93 in - NE 8.1 mph - N/A   Unknown
11:56 PM 46.9 °F - 32.0 °F 56% 29.93 in - NNE 15.0 mph - N/A   Unknown